Weather History for KLAW - November, 2013

Change the Weather History Date:

Tuesday, November 19, 2013

  Actual Average Record
Temperature  
Mean Temperature 59 °F -  
Max Temperature 66 °F 64 °F 85 °F (1950)
Min Temperature 52 °F 37 °F 21 °F (1951)
Degree Days  
Heating Degree Days 6    
Growing Degree Days 9 (Base 50)    
Moisture  
Dew Point 33 °F    
Average Humidity 39    
Maximum Humidity 53    
Minimum Humidity 26    
Precipitation  
Precipitation 0.00 in - - ()
Sea Level Pressure  
Sea Level Pressure 30.05 in    
Wind  
Wind Speed 9 mph (SE)    
Max Wind Speed 18 mph    
Max Gust Speed 25 mph    
Visibility 10 miles    
Events      
Averages and records for this station are not official NWS values.
T = Trace of Precipitation, MM = Missing Value Source: NWS Daily Summary

Daily Weather History Graph

Daily Weather History Graph

Search for Another Location

Airport or City:

Trip Planner

Search our weather history database for the weather conditions in past years. The results will help you decide how hot, cold, wet, or windy it might be!

Date:

Astronomy

Nov. 19, 2013 Rise Set
Actual Time 7:11 AM CST 5:26 PM CST
Civil Twilight 6:44 AM CST 5:53 PM CST
Nautical Twilight 6:13 AM CST 6:24 PM CST
Astronomical Twilight 5:43 AM CST 6:54 PM CST
Moon 7:19 PM CST (11/19) 8:51 AM CST (11/19)
Length of Visible Light 11h 09m
Length of Day
10h 15m
Waning Gibbous, 96% of the Moon is Illuminated
Nov 19
Waning Gibbous
Nov 25
Last Quarter
Dec 2
New
Dec 9
First Quarter
Dec 17
Full

Hourly Weather History & Observations

Time (CST) Temp. Dew Point Humidity Pressure Visibility Wind Dir Wind Speed Gust Speed Precip Events Conditions
12:53 AM 52.0 °F 35.1 °F 53% 30.16 in 10.0 mi Calm Calm - N/A   Clear
1:53 AM 54.0 °F 34.0 °F 47% 30.14 in 10.0 mi Variable 3.5 mph - N/A   Clear
2:53 AM 54.0 °F 35.1 °F 49% 30.15 in 10.0 mi ESE 3.5 mph - N/A   Overcast
3:53 AM 55.0 °F 35.1 °F 47% 30.14 in 10.0 mi SE 8.1 mph - N/A   Mostly Cloudy
4:53 AM 55.0 °F 35.1 °F 47% 30.13 in 10.0 mi SE 9.2 mph - N/A   Partly Cloudy
5:53 AM 54.0 °F 36.0 °F 51% 30.14 in 10.0 mi SE 4.6 mph - N/A   Overcast
6:53 AM 54.0 °F 37.0 °F 53% 30.14 in 10.0 mi SE 6.9 mph - N/A   Overcast
7:53 AM 55.0 °F 35.1 °F 47% 30.14 in 10.0 mi SE 9.2 mph - N/A   Overcast
8:53 AM 57.0 °F 33.1 °F 40% 30.14 in 10.0 mi SSE 15.0 mph 23.0 mph N/A   Overcast
9:53 AM 59.0 °F 32.0 °F 36% 30.14 in 10.0 mi SSE 17.3 mph 24.2 mph N/A   Overcast
10:53 AM 60.1 °F 30.9 °F 33% 30.13 in 10.0 mi SE 16.1 mph 20.7 mph N/A   Overcast
11:53 AM 63.0 °F 30.0 °F 29% 30.07 in 10.0 mi SSE 17.3 mph 25.3 mph N/A   Overcast
12:53 PM 63.0 °F 30.0 °F 29% 30.04 in 10.0 mi SSE 16.1 mph 24.2 mph N/A   Overcast
1:53 PM 64.9 °F 30.0 °F 27% 29.99 in 10.0 mi SSE 18.4 mph 25.3 mph N/A   Overcast
2:53 PM 66.9 °F 30.9 °F 26% 29.96 in 10.0 mi SSE 17.3 mph 25.3 mph N/A   Overcast
3:53 PM 64.0 °F 32.0 °F 30% 29.95 in 10.0 mi SE 17.3 mph - N/A   Mostly Cloudy
4:53 PM 63.0 °F 32.0 °F 31% 29.95 in 10.0 mi SE 15.0 mph 23.0 mph N/A   Overcast
5:53 PM 61.0 °F 33.1 °F 35% 29.94 in 10.0 mi SE 16.1 mph - N/A   Overcast
6:53 PM 60.1 °F 32.0 °F 35% 29.95 in 10.0 mi SE 12.7 mph - N/A   Overcast
7:53 PM 60.1 °F 32.0 °F 35% 29.94 in 10.0 mi SE 18.4 mph 24.2 mph N/A   Mostly Cloudy
8:53 PM 57.9 °F 30.9 °F 36% 29.94 in 10.0 mi SE 16.1 mph - N/A   Clear
9:53 PM 55.9 °F 30.9 °F 39% 29.94 in 10.0 mi SE 15.0 mph - N/A   Partly Cloudy
10:53 PM 54.0 °F 32.0 °F 43% 29.95 in 10.0 mi SE 15.0 mph - N/A   Clear
11:53 PM 53.1 °F 33.1 °F 47% 29.94 in 10.0 mi SE 12.7 mph - N/A   Clear